[[{"header":{"parameterUnit":"m.s-1","parameterCategory":1,"la1":30.2991,"la2":30.254,"lo1":-89.0895,"lo2":-89.0444,"dy":0.0017,"dx":0.0017,"nx":28,"ny":28,"refTime":"2026-02-09T09:00:00:Z","depth":0,"parameterNumber":2,"parameterNumberName":"U-component_of_WINDS"},"data":[0,0,0,0,0,0,0,0,0,0,0,0,0,0,0,0,0,0,0,0,0,0,0,0,0,0,0,0,0,0,0,0,0,0,0,0,0,0,0,0,0,0,0,0,0,0,0,0,0,0,0,0,0,0,0,0,0,0,-0.2746,-0.2746,0,-0.2691,-0.2691,-0.269,-0.2686,-0.2686,-0.2687,-0.2688,-0.2627,-0.2625,-0.2623,0,0,0,0,0,0,0,0,0,0,0,0,0,-0.2845,-0.2843,-0.2747,-0.2746,-0.2745,-0.2691,-0.2691,-0.269,-0.2686,-0.2686,-0.2687,-0.2688,-0.2628,-0.2625,-0.2623,0,0,0,0,0,0,0,0,0,0,0,0,0,-0.2797,-0.2843,-0.2747,-0.2737,-0.2735,-0.2691,-0.2691,-0.269,-0.2686,-0.2686,-0.2687,-0.2688,-0.2629,-0.2625,-0.2622,-0.2583,0,0,-0.2612,-0.2611,0,0,0,0,0,0,0,0,-0.28,-0.2794,-0.2739,-0.2737,-0.2736,-0.2696,-0.2703,-0.2654,-0.2685,-0.2704,-0.2688,-0.2689,-0.2649,-0.2644,-0.2632,-0.258,-0.2578,-0.2612,-0.261,-0.2608,-0.2608,0,0,0,0,0,0,0,-0.2803,-0.2796,-0.2724,-0.2738,-0.2736,-0.2734,-0.2728,-0.2694,-0.2672,-0.2703,-0.2702,-0.2696,-0.2648,-0.2635,-0.263,-0.2577,-0.2612,-0.2609,-0.2607,-0.2606,-0.2491,-0.249,0,0,0,0,0,0,-0.2809,-0.2799,-0.2726,-0.2723,-0.2771,-0.2731,-0.2725,-0.2708,-0.2672,-0.2668,-0.2695,-0.2696,-0.264,-0.2634,-0.2628,-0.258,-0.2608,-0.2605,-0.2604,-0.2492,-0.2491,-0.249,0,0,0,0,0,0,-0.2811,-0.2803,-0.2728,-0.2761,-0.2751,-0.2729,-0.271,-0.2706,-0.2693,-0.2667,-0.2663,-0.2686,-0.264,-0.2633,-0.2595,-0.2578,-0.2604,-0.2601,-0.2494,-0.2492,-0.249,-0.2484,0,0,0,0,0,0,-0.2814,-0.2803,-0.2789,-0.276,-0.2749,-0.2697,-0.2709,-0.2705,-0.2688,-0.2688,-0.2657,-0.2652,-0.2641,-0.26,-0.2592,-0.2574,-0.2598,-0.2495,-0.2493,-0.2491,-0.2486,-0.2483,-0.248,0,0,0,0,0,-0.2817,-0.2789,-0.2788,-0.278,-0.2731,-0.2696,-0.269,-0.2678,-0.2686,-0.2671,-0.2655,-0.2653,-0.2582,-0.2596,-0.2587,-0.2568,-0.2496,-0.2493,-0.2491,-0.2487,-0.2483,-0.248,0,0,0,0,0,0,-0.2814,-0.2785,-0.2784,-0.2745,-0.2723,-0.2696,-0.2676,-0.2674,-0.2648,-0.265,-0.2635,-0.2628,-0.2591,-0.2575,-0.2592,-0.2528,-0.2539,-0.2535,-0.254,-0.2536,-0.2533,-0.2537,-0.2596,0,0,0,0,0,-0.2809,-0.2784,-0.2759,-0.2727,-0.2717,-0.2698,-0.2683,-0.2676,-0.2652,-0.2642,-0.2623,-0.2599,-0.2571,-0.2552,-0.2525,-0.2484,-0.2477,-0.2466,-0.2464,-0.2461,-0.2457,-0.2434,-0.2429,-0.2482,-0.2482,-0.2482,0,0,-0.2798,-0.2779,-0.2764,-0.2726,-0.2709,-0.2682,-0.269,-0.2662,-0.2642,-0.2637,-0.2601,-0.2586,-0.2558,-0.2518,-0.25,-0.2505,-0.2441,-0.2458,-0.2457,-0.2454,-0.2431,-0.2426,-0.2422,-0.248,-0.2481,-0.2481,0,0,-0.2764,-0.2747,-0.2719,-0.2702,-0.2675,-0.2664,-0.2657,-0.263,-0.262,-0.2583,-0.2579,-0.2555,-0.2507,-0.2488,-0.2471,-0.2431,-0.2429,-0.2423,-0.2407,-0.2385,-0.238,-0.2377,-0.2362,-0.2357,-0.2419,-0.2419,-0.2419,0,-0.2753,-0.2714,-0.2704,-0.2676,-0.266,-0.2656,-0.2627,-0.261,-0.2576,-0.2564,-0.257,-0.2511,-0.2492,-0.2447,-0.2438,-0.2425,-0.2416,-0.2426,-0.2382,-0.2378,-0.2374,-0.236,-0.2355,-0.2419,-0.2419,-0.2419,-0.2419,0,-0.2702,-0.2675,-0.2655,-0.2624,-0.2605,-0.2576,-0.2561,-0.2543,-0.2538,-0.2526,-0.2488,-0.2466,-0.2434,-0.2423,-0.2417,-0.2378,-0.2382,-0.2385,-0.2396,-0.2369,-0.2355,-0.235,-0.2418,-0.2418,-0.2418,-0.2418,0,0,-0.2663,-0.2628,-0.262,-0.2606,-0.2578,-0.2556,-0.2527,-0.2498,-0.2482,-0.2459,-0.2434,-0.2394,-0.2398,-0.2379,-0.2371,-0.2352,-0.2321,-0.2357,-0.2357,-0.2351,-0.2276,-0.2273,-0.2267,-0.232,-0.2319,-0.2318,-0.2278,0,-0.2625,-0.2575,-0.2566,-0.2522,-0.2497,-0.2494,-0.2469,-0.2448,-0.2435,-0.2411,-0.2397,-0.2369,-0.2376,-0.2365,-0.2346,-0.2329,-0.2306,-0.2332,-0.2295,-0.2294,-0.2302,-0.226,-0.2257,-0.2221,-0.2273,-0.2272,-0.2272,0,-0.2574,-0.2551,-0.2505,-0.2481,-0.247,-0.2448,-0.242,-0.2398,-0.2374,-0.2366,-0.2346,-0.2341,-0.231,-0.2323,-0.228,-0.2298,-0.2282,-0.2272,-0.227,-0.2266,-0.2281,-0.2254,-0.2209,-0.2203,-0.2263,-0.2264,-0.2264,0,-0.255,-0.2508,-0.2475,-0.2463,-0.2433,-0.2418,-0.2404,-0.2382,-0.2365,-0.234,-0.2329,-0.2301,-0.2285,-0.2263,-0.225,-0.2261,-0.2208,-0.222,-0.22,-0.22,-0.2188,-0.2189,-0.2139,-0.2179,-0.2179,-0.2179,-0.218,0,-0.2509,-0.248,-0.2464,-0.2443,-0.2411,-0.2401,-0.2369,-0.2356,-0.2336,-0.2312,-0.2308,-0.2285,-0.227,-0.2245,-0.2234,-0.22,-0.2193,-0.2185,-0.2182,-0.2185,-0.2186,-0.2174,-0.2176,-0.2178,-0.2178,-0.2179,-0.2179,0,-0.2475,-0.2463,-0.2427,-0.2403,-0.2396,-0.2374,-0.2352,-0.2332,-0.232,-0.229,-0.2283,-0.2264,-0.2234,-0.2219,-0.2182,-0.2175,-0.2136,-0.2136,-0.2145,-0.2144,-0.2124,-0.2126,-0.2064,-0.2056,-0.2102,-0.2102,-0.2102,0,-0.245,-0.2428,-0.2402,-0.2387,-0.2374,-0.2349,-0.2332,-0.2321,-0.2303,-0.2275,-0.2258,-0.2229,-0.2205,-0.2158,-0.214,-0.2112,-0.211,-0.209,-0.2105,-0.2109,-0.2109,-0.211,-0.2108,-0.2087,-0.2087,-0.2086,-0.2086,0,-0.2405,-0.24,-0.2377,-0.2351,-0.2332,-0.2311,-0.229,-0.2278,-0.2263,-0.2244,-0.2215,-0.2196,-0.2159,-0.213,-0.2101,-0.2086,-0.2083,-0.2082,-0.2075,-0.2077,-0.2083,-0.208,-0.2137,-0.2083,-0.2083,-0.2083,-0.2083,-0.2084,-0.2374,-0.2355,-0.2334,-0.2308,-0.2292,-0.2273,-0.2253,-0.224,-0.2215,-0.2185,-0.218,-0.2149,-0.2126,-0.2087,-0.2071,-0.2046,-0.205,-0.2041,-0.2038,-0.2036,-0.2035,-0.2088,-0.204,-0.204,-0.204,-0.2041,-0.2041,0,-0.2328,-0.2315,-0.2292,-0.2264,-0.2244,-0.2245,-0.2222,-0.2205,-0.2178,-0.2158,-0.2135,-0.2101,-0.2073,-0.2054,-0.2025,-0.2008,-0.2006,-0.2001,-0.2002,-0.1998,-0.2033,-0.2041,-0.2003,-0.2003,-0.2003,-0.2003,-0.2003,-0.2003,-0.2302,-0.227,-0.2263,-0.2223,-0.2209,-0.218,-0.2167,-0.2149,-0.2133,-0.2096,-0.2074,-0.2062,-0.2041,-0.2011,-0.1985,-0.198,-0.197,-0.1964,-0.1959,-0.1992,-0.1996,-0.1999,-0.2007,-0.1962,-0.1962,-0.1926,-0.1926,-0.1925]},{"header":{"parameterUnit":"m.s-1","parameterCategory":1,"la1":30.2991,"la2":30.254,"lo1":-89.0895,"lo2":-89.0444,"dy":0.0017,"dx":0.0017,"nx":28,"ny":28,"refTime":"2026-02-09T09:00:00:Z","depth":0,"parameterNumber":3,"parameterNumberName":"V-component_of_WINDS"},"data":[0,0,0,0,0,0,0,0,0,0,0,0,0,0,0,0,0,0,0,0,0,0,0,0,0,0,0,0,0,0,0,0,0,0,0,0,0,0,0,0,0,0,0,0,0,0,0,0,0,0,0,0,0,0,0,0,0,0,0.8744,0.8744,0,0.8774,0.8774,0.8775,0.8742,0.8741,0.874,0.8739,0.877,0.8772,0.8774,0,0,0,0,0,0,0,0,0,0,0,0,0,0.8657,0.8659,0.8744,0.8744,0.8744,0.8774,0.8774,0.8775,0.8743,0.8741,0.874,0.8738,0.8769,0.8772,0.8774,0,0,0,0,0,0,0,0,0,0,0,0,0,0.8692,0.8659,0.8744,0.8732,0.8731,0.8774,0.8774,0.8775,0.8743,0.8741,0.8739,0.8738,0.8768,0.8771,0.8774,0.883,0,0,0.8783,0.8785,0,0,0,0,0,0,0,0,0.869,0.8695,0.8733,0.8733,0.8732,0.8753,0.8755,0.8793,0.8743,0.8739,0.8739,0.8737,0.8766,0.8769,0.8779,0.8831,0.8833,0.8784,0.8785,0.8787,0.8788,0,0,0,0,0,0,0,0.8688,0.8694,0.8756,0.8734,0.8733,0.8725,0.8728,0.8762,0.8762,0.8739,0.8737,0.8741,0.8765,0.8776,0.8779,0.8833,0.8784,0.8786,0.8788,0.8789,0.8934,0.8936,0,0,0,0,0,0,0.8686,0.8692,0.8755,0.8757,0.8706,0.8728,0.8731,0.8748,0.8762,0.8762,0.8742,0.8739,0.8772,0.8776,0.878,0.8847,0.8787,0.879,0.8791,0.8932,0.8935,0.8937,0,0,0,0,0,0,0.8685,0.8692,0.8753,0.8724,0.8731,0.8732,0.875,0.8749,0.876,0.8764,0.8764,0.8753,0.877,0.8776,0.8818,0.8848,0.8791,0.8794,0.893,0.8933,0.8936,0.8981,0,0,0,0,0,0,0.8682,0.8692,0.8713,0.8724,0.8732,0.8791,0.8752,0.8751,0.8766,0.8762,0.8775,0.8775,0.8769,0.8814,0.8821,0.8851,0.8796,0.8927,0.8931,0.8935,0.8977,0.8986,0.8993,0,0,0,0,0,0.8679,0.8725,0.8715,0.8722,0.8759,0.8793,0.8798,0.879,0.8768,0.879,0.8792,0.8775,0.8843,0.8818,0.8826,0.8857,0.8925,0.893,0.8934,0.8974,0.8984,0.8993,0,0,0,0,0,0,0.8717,0.8726,0.8715,0.8765,0.8779,0.8788,0.8815,0.8801,0.8821,0.8817,0.8806,0.8809,0.8855,0.886,0.8832,0.8912,0.888,0.8887,0.8908,0.8917,0.8925,0.8923,0.8798,0,0,0,0,0,0.8731,0.8758,0.8764,0.8808,0.8815,0.8814,0.8828,0.8821,0.8835,0.884,0.8846,0.886,0.8884,0.8901,0.8923,0.8977,0.898,0.9002,0.901,0.9016,0.9023,0.9052,0.9063,0.8952,0.8952,0.8952,0,0,0.8761,0.8769,0.8787,0.8816,0.8825,0.8854,0.8819,0.885,0.8871,0.8845,0.8886,0.889,0.8905,0.8953,0.8975,0.8959,0.9054,0.9022,0.9027,0.903,0.9058,0.9069,0.9078,0.8955,0.8955,0.8954,0,0,0.883,0.8838,0.8876,0.8886,0.8901,0.89,0.8909,0.892,0.8922,0.8963,0.8944,0.8968,0.9011,0.9022,0.9034,0.9106,0.9091,0.9114,0.9155,0.9184,0.9193,0.9201,0.9228,0.9237,0.912,0.912,0.912,0,0.8865,0.8907,0.8897,0.893,0.8944,0.8921,0.896,0.897,0.8992,0.9002,0.8983,0.9036,0.9044,0.9096,0.9114,0.9123,0.9133,0.9113,0.9192,0.92,0.9207,0.9233,0.9243,0.9122,0.9122,0.9122,0.9122,0,0.895,0.8979,0.9008,0.903,0.9046,0.9082,0.9077,0.9095,0.9087,0.9087,0.9129,0.9137,0.9162,0.9173,0.9165,0.9223,0.9213,0.9194,0.9162,0.922,0.9245,0.9254,0.9126,0.9125,0.9125,0.9124,0,0,0.9045,0.9061,0.9072,0.9081,0.9096,0.9119,0.9153,0.9177,0.9193,0.9208,0.9237,0.9273,0.9255,0.9268,0.9261,0.9286,0.9344,0.9263,0.9264,0.9279,0.9411,0.9427,0.9438,0.9334,0.9336,0.9337,0.941,0,0.9115,0.9175,0.9167,0.9225,0.9252,0.9231,0.9261,0.9273,0.9274,0.9297,0.9298,0.9325,0.9298,0.9306,0.933,0.9332,0.9371,0.9327,0.9361,0.9363,0.936,0.9451,0.9468,0.9536,0.9419,0.9421,0.9422,0,0.9206,0.9225,0.9286,0.9296,0.9307,0.9335,0.9356,0.9378,0.9392,0.9391,0.9405,0.9393,0.9427,0.9393,0.9441,0.9411,0.9424,0.9428,0.943,0.9435,0.9397,0.9459,0.9558,0.9569,0.9436,0.9435,0.9434,0,0.9271,0.9311,0.9353,0.9362,0.9375,0.9395,0.9401,0.9413,0.9428,0.9446,0.9456,0.9478,0.9491,0.9508,0.9502,0.9478,0.9552,0.9517,0.9552,0.9553,0.957,0.957,0.9674,0.9576,0.9576,0.9576,0.9576,0,0.9351,0.939,0.9383,0.9409,0.9451,0.9441,0.9483,0.9487,0.9497,0.9523,0.9505,0.953,0.952,0.9544,0.954,0.958,0.9586,0.9586,0.9585,0.9589,0.9589,0.9599,0.9595,0.9579,0.9578,0.9577,0.9577,0,0.9432,0.9429,0.9473,0.9482,0.9485,0.9516,0.9524,0.9548,0.9547,0.958,0.9588,0.9587,0.9614,0.961,0.964,0.9637,0.9688,0.968,0.9684,0.9683,0.9719,0.9717,0.9835,0.9851,0.9741,0.9742,0.9743,0,0.9485,0.9514,0.9526,0.9542,0.955,0.9577,0.9592,0.9583,0.96,0.9617,0.9639,0.9665,0.9686,0.9731,0.9733,0.9756,0.9749,0.9789,0.9753,0.9756,0.9752,0.9751,0.9754,0.9797,0.9798,0.9799,0.98,0,0.9579,0.9576,0.9599,0.9622,0.9641,0.9658,0.9673,0.9687,0.9679,0.9699,0.9727,0.9743,0.9774,0.9801,0.9822,0.9828,0.9814,0.9811,0.9821,0.9826,0.9828,0.9829,0.9706,0.9809,0.9808,0.9807,0.9807,0.9807,0.9649,0.9674,0.9687,0.9713,0.9723,0.9738,0.9762,0.9764,0.9787,0.9812,0.9805,0.9837,0.9849,0.9877,0.9885,0.991,0.9895,0.9909,0.9913,0.9917,0.9922,0.9823,0.9914,0.9913,0.9913,0.9913,0.9913,0,0.9744,0.9751,0.9775,0.9797,0.9818,0.9801,0.9817,0.9835,0.9864,0.9877,0.9897,0.993,0.9955,0.9959,0.9982,1.0002,0.9996,1.0009,1.0008,1.001,0.9933,0.9923,1.0013,1.0013,1.0013,1.0013,1.0013,1.0013,0.9796,0.9838,0.9836,0.9883,0.9889,0.9921,0.9932,0.9946,0.9956,0.9993,1.0014,1.0016,1.0025,1.0049,1.0072,1.0072,1.0082,1.0099,1.0097,1.0025,1.0015,1.0006,0.9996,1.01,1.0101,1.0171,1.0172,1.0172]}]]